Regional Weather Roundup
Issued by NWS Charleston, SC

Current Version | Previous Version | Graphics & Text | Print | Product List | Glossary On
Versions: 1 2 3 4 5 6 7 8 9 10 11 12 13 14 15 16 17 18 19 20 21 22 23 24 25 26 27 28 29 30 31 32 33 34 35 36 37 38 39 40 41 42 43 44 45 46 47 48 49 50
000
ASUS42 KCHS 041812
RWRCHS

REGIONAL WEATHER ROUNDUP
NATIONAL WEATHER SERVICE CHARLESTON SC
200 PM EDT TUE AUG 04 2015

NOTE: "FAIR" INDICATES FEW OR NO CLOUDS BELOW 12,000 FEET WITH NO
SIGNIFICANT WEATHER AND/OR OBSTRUCTIONS TO VISIBILITY.

NOT ALL STATIONS ARE QUALITY CONTROLLED BY THE NATIONAL
WEATHER SERVICE. USE DATA WITH CAUTION...ESPECIALLY
DEWPOINT OBSERVATIONS.

SCZ027-030-031-034>040-042>050-041900-
...SOUTHEAST SOUTH CAROLINA...

CITY           SKY/WX    TMP DP  RH WIND       PRES   REMARKS
N CHARLESTON   PTSUNNY   88  73  61 NW8       29.97S HX  95
6HR MIN TEMP:  76; 6HR MAX TEMP:  89;

WATERFRONT PRK   N/A     84  77  79 CALM      29.94F HX  94
MOUNT PLEASANT MOCLDY    84  75  74 NW8       29.97S HX  92
JOHNS ISLAND     N/A     88  77  70 CALM      29.97S HX 100
PINOPOLIS      NOT AVBL
MONCKS CORNER  FAIR      84  73  70 CALM      29.97F HX  91
SUMMERVILLE    CLOUDY    86  77  74 N5        29.99S HX  97
BEAUFORT MCAS  MOSUNNY   87  74  64 CALM      29.98F HX  95
6HR MIN TEMP:  77; 6HR MAX TEMP:  90;

BEAUFORT ARPT  MOCLDY    86  75  70 CALM      29.98F HAZE    HX  95
HILTON HEAD IS MOSUNNY   88  73  62 CALM      30.00F HX  96
WALTERBORO     CLOUDY    90  73  58 NW7       29.98F HX  98
ALLENDALE      FAIR      91  72  52 CALM      29.98S HX  98

...SOUTHERN MIDLANDS AND PEE DEE...

CITY           SKY/WX    TMP DP  RH WIND       PRES   REMARKS
GEORGETOWN     NOT AVBL
KINGSTREE      NOT AVBL
ORANGEBURG     MOSUNNY   93  68  43 MISG      29.97F HX  97
6HR MIN TEMP:  75; 6HR MAX TEMP:  93;

BARNWELL       FAIR      97  73  46 CALM      29.98S HX 107
AIKEN          FAIR      93  63  36 W6        30.02S HX  94
MANNING        MOCLDY    86  70  58 N3        29.96F HX  90
COLUMBIA       MOSUNNY   97  67  37 VRB6      29.95F HX 101
6HR MIN TEMP:  76; 6HR MAX TEMP:  97;

SUMTER         MOSUNNY   91  71  51 N7        29.94F HX  97
6HR MIN TEMP:  76; 6HR MAX TEMP:  93;

FLORENCE       PTSUNNY   90  72  55 N3        29.94F HX  97
6HR MIN TEMP:  76; 6HR MAX TEMP:  91; 6HR PCP: TRACE;

MYRTLE BEACH   CLOUDY    82  75  78 NW12      29.94S
N MYRTLE BEACH CLOUDY    83  77  82 S12       29.91F HX  92
6HR MIN TEMP:  77; 6HR MAX TEMP:  84; 6HR PCP: TRACE;


$$

GAZ063-065-086>088-099>101-113>116-118-119-134>141-150-041900-
...SOUTHEAST GEORGIA...

CITY           SKY/WX    TMP DP  RH WIND       PRES   REMARKS
SAVANNAH ARPT  MOSUNNY   91  74  57 W6        29.99F HX 100
6HR MIN TEMP:  75; 6HR MAX TEMP:  91;

HUNTER AAF     SUNNY     89  77  67 VRB2      29.97F HX 102
6HR MIN TEMP:  76; 6HR MAX TEMP:  89;

FORT STEWART   MOSUNNY   93  70  46 VRB2      29.98F HX  99
STATESBORO     SUNNY     90  77  66 N5        30.00F HX 103
SYLVANIA       CLEAR     93  76  57 N5        30.00F HX 104
CLAXTON        NOT AVBL

...CSRA...CENTRAL AND FAR SOUTHEAST GEORGIA...

CITY           SKY/WX    TMP DP  RH WIND       PRES   REMARKS
THOMSON        PTSUNNY   94  73  51 E3        30.03F HX 103
AUGUSTA-BUSH   MOSUNNY   96  69  41 VRB6      29.96F HX 102
6HR MIN TEMP:  75; 6HR MAX TEMP:  96;

AUGUSTA-DANIEL SUNNY     94  71  47 CALM      29.99F HX 101
SWAINSBORO     FAIR      95  73  49 CALM      30.01F HX 105
VIDALIA        SUNNY     91  72  52 N5        30.00F HX  98
EASTMAN        FAIR      97  64  33 N3        30.01F HX  99
HAZLEHURST     FAIR      94  75  53 CALM      29.99F HX 105
ALMA           SUNNY     92  74  55 VRB3      29.99F HX 101
6HR MIN TEMP:  75; 6HR MAX TEMP:  93;

WAYCROSS       MOSUNNY   93  78  62 CALM      30.00S HX 109
JESUP          FAIR      97  77  52 N6        30.00F HX 112
BAXLEY         FAIR      93  75  55 CALM      29.99F HX 104
BRUNSWICK      MOSUNNY   91  73  55 SW3       30.01F HX 100
SAINT SIMONS   MOSUNNY   88  73  61 VRB6      30.00F HX  95
6HR MIN TEMP:  78; 6HR MAX TEMP:  90;


$$

SCZ027-028-034-036>038-045-046-048>050-GAZ119-141-041900-
...LAKE AND SUPPLEMENTAL COASTAL OBSERVATIONS...

STATION/POSITION TIME  TEMP    WIND        PRES    WAVE   SWELL
                       AIR SEA DIR/SP/G            HT/PER HT/PER/DIR
                 (UTC) (F)     (DEG/KT/KT) (MB)    (FT/S) (FT/S/D)
UPR LAKE MARION  NOT AVBL
WINYAH BAY       NOT AVBL
LAKE MURRAY      1700   87     180/  8/  9 1014.6F
ACE BASIN NERRS  NOT AVBL
FORT PULASKI     1700   84 84  270/  4/  5 1016.6R
SAPELO ISLAND    1700   86     230/  3     1016.0F

$$

ANZ835-935-AMZ111-154-330-350-352-354-370-450-454-472-041900-
...C-MAN AND BUOY OBSERVATIONS...

STATION/POSITION TIME  TEMP    WIND        PRES    WAVE   SWELL
                       AIR SEA DIR/SP/G            HT/PER HT/PER/DIR
                 (UTC) (F)     (DEG/KT/KT) (MB)    (FT/S) (FT/S/D)
BUOY 41004       1750   81 83  250/ 14/ 16 1014.7R   6/ 7   5/ 7
BUOY 41008       1750   81 84  230/  2/  4 1016.4F   3/ 6   3/130/ 6
FOLLY BEACH CMAN 1700   84     250/  6/  7 1015.2F
CAPERS NEARSHORE 1708   81     260/ 10/ 14 1015.2R
FRIPP NEARSHORE  1700   87     310/  2/  4 1015.5R


STATION/POSITION TIME  TEMP    WIND        PRES    WAVE   SWELL
                       AIR SEA DIR/SP/G            HT/PER HT/PER/DIR
                 (UTC) (F)     (DEG/KT/KT) (MB)    (FT/S) (FT/S/D)
5E ST. MARYS GA  1721      82                N/A     3/ 6
FRYING PAN BUOY  1750   80 81  190/ 27/ 33 1014.5F   9/ 8   2/150/11
BUOY 41025       1750   82 84  200/ 17/ 21 1016.5F   4/ 6   2/180/ 7
CAPE LOOKOUT NC  1700   82     200/ 12/ 14 1016.2F
BUOY 41002       1750   83 81  200/ 12/ 14 1019.1F   5/ 6   5/220/ 6
BUOY 41010       1720   83 84  210/ 10/ 12 1019.0F
ST AUGUSTINE FL  1800   86 77  220/  6/  8 1017.8F


$$


USA.gov is the U.S. government's official web portal to all federal, state and local government web resources and services.